Tracking 30261 objects as of 18-Feb-2025
HD Live streaming from Space Station
objects crossing your sky now

STARLINK-5178

Track STARLINK-5178 now!
10-day predictions
STARLINK-5178 is classified as:


NORAD ID: 54083
Int'l Code: 2022-136AJ
Perigee: 545.3 km
Apogee: 548.4 km
Inclination: 53.2 °
Period: 95.4 minutes
Semi major axis: 6917 km
RCS: Unknown
Launch date: October 20, 2022
Source: United States (US)
Launch site: AIR FORCE EASTERN TEST RANGE (AFETR)
Your satellite tracking list
Your tracking list is empty




NASA's NSSDC Master Catalog

Two Line Element Set (TLE):
1 54083U 22136AJ  25048.97072984  .00000714  00000-0  62957-4 0  9994
2 54083  53.2173 261.2574 0002203  76.6093 283.5145 15.08845596129380
Source of the keplerian elements: AFSPC